Terminal Aerodrome Forecast
Issued by NWS

Home | Current Version | Previous Version | Text Only | Print | Product List | Glossary On
Versions: 1 2 3 4 5 6 7 8 9 10 11 12 13 14 15 16 17 18 19 20 21 22 23 24 25 26 27 28 29 30
000
FTUS43 KDLH 260500
TAFHYR
TAF
KHYR 260539Z 2606/2706 17004KT P6SM BKN060
      TEMPO 2610/2611 3SM -SN BKN020 OVC045
     FM261100 18005KT 1 1/2SM -SN OVC015
      TEMPO 2612/2615 3/4SM -SN OVC008
     FM261600 20005KT 4SM -SN BR OVC010
     FM262200 23004KT 6SM BR OVC015
     FM270200 33003KT P6SM OVC015=

USA.gov is the U.S. government's official web portal to all federal, state and local government web resources and services.